Location: Unspecified
(0.0000°N, 0.0000°E)
Time: 12:00:28
(UTC+00:00)

Vanguard 2 Rocket - Pass Details

Date: 17 December 2018
Orbit: 556 x 3325 km, 32.9° (Epoch: 25 March)

Event Time Altitude Azimuth Distance (km) Brightness Sun altitude
Rises 02:23:58 0° 246° (WSW) 5,465 - -47.1°
Reaches altitude 10° 02:28:29 10° 251° (WSW) 3,978 - -46.2°
Maximum altitude 02:37:21 42° 319° (NW) 1,515 - -44.4°
Drops below altitude 10° 02:42:41 10° 30° (NNE) 2,392 - -43.3°
Sets 02:44:47 0° 38° (NE) 3,122 - -42.8°
